Location: Cruquius
(52.3348°N, 4.6319°E)
Time: 20:35:08
(UTC+00:00)

Meteor 1-15 Rocket - Pass Details

Date: 12 May 2021
Orbit: 840 x 907 km, 81.2° (Epoch: 20 June)

Event Time Altitude Azimuth Distance (km) Brightness Sun altitude
Rises 23:39:46 0° 347° (NNW) 3,438 8.8 -19.3°
Reaches altitude 10° 23:42:11 10° 348° (NNW) 2,506 7.8 -19.3°
Maximum altitude 23:47:54 84° 76° (ENE) 882 4.2 -19.2°
Enters shadow 23:50:39 33° 163° (SSE) 1,439 4.9 -19.2°
